"TOA5","MOW","CPU:UNC_MeetingWaters","DataHourly"
"TIMESTAMP","SondeTempC","SpCond","DOSat","DOmg","pH","Turb","BattVolt_Min"
"TS","","","","","","",""
"","Smp","Smp","Smp","Smp","Smp","Smp","Min"
"2002-09-01 00:00:00",21.1200008392,0.103000000119,96.6999969482,8.60000038147,2.5,51.7999992371,12.1300001144
"2002-09-01 01:00:00",21.1299991608,0.10000000149,96.8000030518,8.60999965668,2.48000001907,46.7000007629,12.1300001144
"2002-09-01 02:00:00",21.1499996185,0.109999999404,95.3000030518,8.47000026703,2.55999994278,31.6000003815,12.1300001144
"2002-09-01 03:00:00",21.1200008392,0.122000001371,93.5999984741,8.31999969482,2.66000008583,27.2000007629,12.1199998856
"2002-09-01 04:00:00",21.1100006104,0.138999998569,94.0,8.35999965668,2.67000007629,32.0999984741,12.1199998856
"2002-09-01 05:00:00",21.1000003815,0.181999996305,93.5999984741,8.31999969482,2.80999994278,30.1000003815,12.1099996567
"2002-09-01 06:00:00",21.0699996948,0.189999997616,93.0999984741,8.28999996185,2.86999988556,90.8000030518,12.1099996567
"2002-09-01 07:00:00",21.0300006866,0.208000004292,92.9000015259,8.27999973297,2.92000007629,196.5,12.1099996567
"2002-09-01 08:00:00",21.0,0.22499999404,93.0999984741,8.28999996185,2.98000001907,25.7999992371,12.1000003815
"2002-09-01 09:00:00",21.0,0.243000000715,93.0,8.28999996185,3.01999998093,94.9000015259,12.1300001144
"2002-09-01 10:00:00",21.0300006866,0.254999995232,93.5,8.32999992371,3.04999995232,851.0,12.220000267
"2002-09-01 11:00:00",21.1100006104,0.261999994516,94.0999984741,8.35999965668,3.07999992371,49.5,12.3299999237
"2002-09-01 12:00:00",21.2299995422,0.266999989748,94.5,8.38000011444,3.08999991417,39.0,12.4300003052
"2002-09-01 13:00:00",21.4300003052,0.268999993801,95.5999984741,8.44999980927,3.11999988556,22.1000003815,12.6400003433
"2002-09-01 14:00:00",21.6399993896,0.268999993801,96.5999984741,8.5,3.13000011444,19.8999996185,12.6599998474
"2002-09-01 15:00:00",21.75,0.272000014782,95.5999984741,8.39999961853,3.11999988556,17.8999996185,12.5900001526
"2002-09-01 16:00:00",21.7399997711,0.277999997139,94.8000030518,8.32999992371,3.13000011444,31.2999992371,12.4600000381
"2002-09-01 17:00:00",21.7000007629,0.282999992371,93.4000015259,8.21000003815,3.1400001049,21.8999996185,12.3999996185
"2002-09-01 18:00:00",21.6299991608,0.284999996424,91.8000030518,8.07999992371,3.15000009537,11.8000001907,12.3599996567
"2002-09-01 19:00:00",21.5599994659,0.289999991655,91.1999969482,8.02999973297,3.16000008583,54.2999992371,12.3400001526
"2002-09-01 20:00:00",21.4799995422,0.286000013351,91.0999984741,8.03999996185,3.17000007629,131.300003052,12.3299999237
"2002-09-01 21:00:00",21.3700008392,0.263999998569,91.5,8.09000015259,3.20000004768,5.30000019073,12.3100004196
"2002-09-01 22:00:00",21.1900005341,0.212999999523,91.5999984741,8.13000011444,3.20000004768,4.90000009537,12.3000001907
"2002-09-01 23:00:00",21.0,0.202000007033,91.5999984741,8.15999984741,3.20000004768,4.09999990463,12.279999733
"2002-09-02 00:00:00",20.8299999237,0.29699999094,91.5999984741,8.18999958038,3.21000003815,4.09999990463,12.279999733
"2002-09-02 01:00:00",20.6399993896,0.190999999642,91.6999969482,8.22999954224,3.20000004768,3.90000009537,12.2600002289
"2002-09-02 02:00:00",20.5300006866,0.177000001073,91.8000030518,8.25,3.20000004768,3.70000004768,12.2399997711
"2002-09-02 03:00:00",20.4599990845,0.181999996305,91.6999969482,8.26000022888,3.21000003815,3.09999990463,12.2399997711
"2002-09-02 04:00:00",20.4200000763,0.186000004411,91.5999984741,8.26000022888,3.21000003815,2.79999995232,12.2399997711
"2002-09-02 05:00:00",20.3899993896,0.178000003099,91.9000015259,8.28999996185,3.22000002861,2.79999995232,12.220000267
"2002-09-02 06:00:00",20.3400001526,0.167999997735,91.6999969482,8.27999973297,3.21000003815,2.79999995232,12.2100000381
"2002-09-02 07:00:00",20.2700004578,0.182999998331,91.5999984741,8.27999973297,3.22000002861,2.59999990463,12.2100000381
"2002-09-02 08:00:00",20.2199993134,0.184000000358,91.6999969482,8.28999996185,3.22000002861,2.40000009537,12.1999998093
"2002-09-02 09:00:00",20.2000007629,0.179000005126,92.6999969482,8.39999961853,3.22000002861,2.29999995232,12.1899995804
"2002-09-02 10:00:00",20.2099990845,0.171000003815,93.9000015259,8.5,3.23000001907,2.29999995232,12.2600002289
"2002-09-02 11:00:00",20.2800006866,0.167999997735,94.9000015259,8.56999969482,3.24000000954,2.29999995232,12.3400001526
"2002-09-02 12:00:00",20.4300003052,0.165999993682,96.3000030518,8.68000030518,3.25999999046,2.20000004768,12.5399999619
"2002-09-02 13:00:00",20.6200008392,0.166999995708,96.9000015259,8.69999980927,3.25999999046,2.09999990463,12.6000003815
"2002-09-02 14:00:00",20.7700004578,0.165999993682,97.6999969482,8.75,3.27999997139,2.20000004768,12.5900001526
"2002-09-02 15:00:00",21.0,0.170000001788,98.0999984741,8.73999977112,3.27999997139,2.5,12.779999733
"2002-09-02 16:00:00",21.4500007629,0.166999995708,100.099998474,8.84000015259,3.30999994278,2.20000004768,12.8900003433
"2002-09-02 17:00:00",21.2700004578,0.170000001788,96.1999969482,8.52999973297,3.25,3.29999995232,12.6499996185
"2002-09-02 18:00:00",21.2600002289,0.166999995708,94.5999984741,8.39000034332,3.25,2.20000004768,12.529999733
"2002-09-02 19:00:00",21.2099990845,0.167999997735,93.1999969482,8.27000045776,3.24000000954,2.09999990463,12.470000267
"2002-09-02 20:00:00",21.1100006104,0.186000004411,92.1999969482,8.19999980927,3.24000000954,2.09999990463,12.4499998093
"2002-09-02 21:00:00",21.0,0.173999994993,91.6999969482,8.17000007629,3.24000000954,2.70000004768,12.4300003052
"2002-09-02 22:00:00",20.8299999237,0.170000001788,91.3000030518,8.15999984741,3.24000000954,2.20000004768,12.4099998474
"2002-09-02 23:00:00",20.7199993134,0.172000005841,91.4000015259,8.18999958038,3.24000000954,2.20000004768,12.3999996185
"2002-09-03 00:00:00",20.5400009155,0.167999997735,90.6999969482,8.15999984741,3.25,2.70000004768,12.3800001144
"2002-09-03 01:00:00",20.3899993896,0.167999997735,90.8000030518,8.18999958038,3.24000000954,2.90000009537,12.3699998856
"2002-09-03 02:00:00",20.2600002289,0.16400000453,91.0,8.22000026703,3.24000000954,2.79999995232,12.3599996567
"2002-09-03 03:00:00",20.1200008392,0.16099999845,91.0,8.25,3.23000001907,3.5,12.3400001526
"2002-09-03 04:00:00",19.9500007629,0.157000005245,91.0,8.27999973297,3.23000001907,2.70000004768,12.3299999237
"2002-09-03 05:00:00",19.7999992371,0.156000003219,91.9000015259,8.39000034332,3.22000002861,2.20000004768,12.3299999237
"2002-09-03 06:00:00",19.6399993896,0.157000005245,92.1999969482,8.43999958038,3.23000001907,1.79999995232,12.3100004196
"2002-09-03 07:00:00",19.5100002289,0.159999996424,93.1999969482,8.55000019073,3.23000001907,1.70000004768,12.3100004196
"2002-09-03 08:00:00",19.4300003052,0.162000000477,94.1999969482,8.65999984741,3.25,2.0,12.3000001907
"2002-09-03 09:00:00",19.4799995422,0.168999999762,94.9000015259,8.72000026703,3.27999997139,2.40000009537,12.3999996185
"2002-09-03 10:00:00",20.0300006866,0.166999995708,98.6999969482,8.96000003815,3.29999995232,3.40000009537,12.7399997711
"2002-09-03 11:00:00",20.2399997711,0.178000003099,98.8000030518,8.93000030518,3.28999996185,2.40000009537,12.6999998093
"2002-09-03 12:00:00",20.8700008392,0.168999999762,100.599998474,8.98999977112,3.31999993324,3.5,12.779999733
"2002-09-03 13:00:00",21.9599990845,0.17499999702,103.900001526,9.09000015259,3.40000009537,3.79999995232,13.0100002289
"2002-09-03 14:00:00",22.1499996185,0.349000006914,101.099998474,8.81000041962,3.36999988556,4.59999990463,12.9899997711
"2002-09-03 15:00:00",23.1399993896,0.209999993443,103.5,8.85000038147,3.43000006676,6.40000009537,12.9600000381
"2002-09-03 16:00:00",22.9099998474,0.226999998093,100.5,8.63000011444,3.44000005722,6.59999990463,12.9399995804
"2002-09-03 17:00:00",22.6200008392,0.225999996066,94.9000015259,8.18999958038,3.45000004768,5.0,12.779999733
"2002-09-03 18:00:00",22.6399993896,0.226999998093,91.4000015259,7.88999986649,3.47000002861,6.5,12.6300001144
"2002-09-03 19:00:00",22.4699993134,0.238999992609,88.0,7.61999988556,3.47000002861,12.8000001907,12.5699996948
"2002-09-03 20:00:00",22.3799991608,0.243000000715,86.3000030518,7.48999977112,3.46000003815,20.8999996185,12.5500001907
"2002-09-03 21:00:00",22.2900009155,0.0689999982715,84.3000030518,7.32999992371,3.43000006676,25.2999992371,12.529999733
"2002-09-03 22:00:00",22.1499996185,0.239999994636,85.9000015259,7.48000001907,3.42000007629,28.0,12.5100002289
"2002-09-03 23:00:00",22.0499992371,0.234999999404,86.4000015259,7.55000019073,3.3900001049,27.1000003815,12.5
"2002-09-04 00:00:00",21.9300003052,0.22499999404,86.8000030518,7.59999990463,3.38000011444,22.7000007629,12.4899997711
"2002-09-04 01:00:00",21.8199996948,0.215000003576,88.3000030518,7.73999977112,3.38000011444,16.8999996185,12.4799995422
"2002-09-04 02:00:00",21.6800003052,0.209000006318,89.5,7.86999988556,3.36999988556,11.6999998093,12.470000267
"2002-09-04 03:00:00",21.5300006866,0.20000000298,89.9000015259,7.92999982834,3.34999990463,8.0,12.4600000381
"2002-09-04 04:00:00",21.4099998474,0.196999996901,90.0999984741,7.96999979019,3.36999988556,6.40000009537,12.4499998093
"2002-09-04 05:00:00",21.2800006866,0.195999994874,90.5999984741,8.02999973297,3.36999988556,4.59999990463,12.4499998093
"2002-09-04 06:00:00",21.1700000763,0.189999997616,91.5,8.13000011444,3.36999988556,4.19999980927,12.4399995804
"2002-09-04 07:00:00",21.0599994659,0.189999997616,91.4000015259,8.13000011444,3.34999990463,4.09999990463,12.4399995804
"2002-09-04 08:00:00",20.9899997711,0.180999994278,92.5999984741,8.25,3.3599998951,4.19999980927,12.4300003052
"2002-09-04 09:00:00",21.0799999237,0.182999998331,93.5999984741,8.31999969482,3.3599998951,4.5,12.4899997711
"2002-09-04 10:00:00",21.6100006104,0.175999999046,97.5,8.57999992371,3.3900001049,5.19999980927,13.1599998474
"2002-09-04 11:00:00",22.2800006866,0.185000002384,100.199996948,8.71000003815,3.36999988556,5.19999980927,13.0799999237
"2002-09-04 12:00:00",22.3799991608,0.168999999762,98.6999969482,8.56999969482,3.31999993324,11.0,12.7399997711
"2002-09-04 13:00:00",23.6100006104,0.165999993682,104.199996948,8.82999992371,3.34999990463,4.69999980927,12.9899997711
"2002-09-04 14:00:00",24.0599994659,0.17499999702,105.099998474,8.82999992371,3.36999988556,4.90000009537,12.9499998093
"2002-09-04 15:00:00",24.4799995422,0.182999998331,105.099998474,8.76000022888,3.41000008583,5.5,12.9099998474
"2002-09-04 16:00:00",24.4599990845,0.194999992847,103.0,8.59000015259,3.44000005722,6.0,12.8400001526
"2002-09-04 17:00:00",24.1900005341,0.204999998212,98.5,8.26000022888,3.41000008583,5.09999990463,12.7899999619
"2002-09-04 18:00:00",23.9699993134,0.203999996185,94.5999984741,7.96000003815,3.40000009537,4.90000009537,12.6300001144
"2002-09-04 19:00:00",23.7299995422,0.202999994159,92.5999984741,7.82999992371,3.36999988556,5.30000019073,12.5900001526
"2002-09-04 20:00:00",23.5799999237,0.195999994874,90.5,7.67000007629,3.32999992371,4.40000009537,12.5600004196
"2002-09-04 21:00:00",23.4699993134,0.187000006437,89.4000015259,7.59999990463,3.32999992371,4.5,12.5500001907
"2002-09-04 22:00:00",23.4300003052,0.00899999961257,88.0,7.48999977112,3.27999997139,5.5,12.5399999619
"2002-09-04 23:00:00",23.3400001526,0.00999999977648,86.8000030518,7.40000009537,3.26999998093,6.19999980927,12.529999733
"2002-09-05 00:00:00",23.2299995422,0.0130000002682,86.1999969482,7.36000013351,3.25999999046,7.5,12.5100002289
"2002-09-05 01:00:00",23.0900001526,0.171000003815,87.9000015259,7.53000020981,3.28999996185,9.10000038147,12.5
"2002-09-05 02:00:00",22.9300003052,0.0469999983907,87.8000030518,7.53999996185,3.25999999046,8.10000038147,12.5
"2002-09-05 03:00:00",22.7900009155,0.00800000037998,87.5999984741,7.55000019073,3.24000000954,7.40000009537,12.4899997711
"2002-09-05 04:00:00",22.5400009155,0.0689999982715,87.8000030518,7.59000015259,3.25,5.80000019073,12.4899997711
"2002-09-05 05:00:00",22.2900009155,0.165000006557,88.9000015259,7.73000001907,3.27999997139,4.30000019073,12.470000267
"2002-09-05 06:00:00",22.0900001526,0.163000002503,89.1999969482,7.78000020981,3.26999998093,3.90000009537,12.4600000381
"2002-09-05 07:00:00",21.7999992371,0.0329999998212,89.4000015259,7.84999990463,3.22000002861,3.09999990463,12.4499998093
"2002-09-05 08:00:00",21.5499992371,0.158000007272,92.1999969482,8.13000011444,3.26999998093,3.29999995232,12.4399995804
"2002-09-05 09:00:00",21.4400005341,0.152999997139,93.8000030518,8.28999996185,3.26999998093,2.5,12.4600000381
"2002-09-05 10:00:00",22.0200004578,0.15000000596,99.8000030518,8.72000026703,3.32999992371,3.09999990463,13.1800003052
"2002-09-05 11:00:00",22.5599994659,0.149000003934,102.900001526,8.89999961853,3.33999991417,2.40000009537,13.1199998856
"2002-09-05 12:00:00",22.2099990845,0.146999999881,100.099998474,8.71000003815,3.26999998093,2.79999995232,12.7399997711
"2002-09-05 13:00:00",23.3700008392,0.145999997854,104.5,8.89999961853,3.32999992371,3.09999990463,13.0399999619
"2002-09-05 14:00:00",23.8400001526,0.15000000596,104.400001526,8.81999969482,3.30999994278,3.40000009537,13.0200004578
"2002-09-05 15:00:00",23.3400001526,0.277999997139,99.6999969482,8.48999977112,3.25,6.80000019073,12.970000267
"2002-09-05 16:00:00",23.8099994659,0.152999997139,102.699996948,8.67000007629,3.29999995232,7.5,12.970000267
"2002-09-05 17:00:00",23.0200004578,0.153999999166,96.0999984741,8.23999977112,3.25,6.59999990463,12.7899999619
"2002-09-05 18:00:00",22.8700008392,0.158000007272,91.0,7.82000017166,3.28999996185,6.69999980927,12.6300001144
"2002-09-05 19:00:00",22.8500003815,0.00200000009499,85.4000015259,7.34999990463,3.23000001907,7.09999990463,12.6000003815
"2002-09-05 20:00:00",22.4799995422,0.0010000000475,84.0999984741,7.28999996185,3.20000004768,6.30000019073,12.5699996948
"2002-09-05 21:00:00",22.2700004578,0.0140000004321,87.0999984741,7.57999992371,3.19000005722,5.59999990463,12.5500001907
"2002-09-05 22:00:00",21.9599990845,0.00200000009499,88.6999969482,7.76000022888,3.16000008583,4.69999980927,12.529999733
"2002-09-05 23:00:00",21.7000007629,0.0010000000475,87.6999969482,7.71000003815,3.16000008583,4.19999980927,12.5100002289
"2002-09-06 00:00:00",21.4099998474,0.0010000000475,85.6999969482,7.57999992371,3.17000007629,6.90000009537,12.5
"2002-09-06 01:00:00",21.1200008392,0.0010000000475,85.5,7.61000013351,3.18000006676,4.69999980927,12.4899997711
"2002-09-06 02:00:00",20.7800006866,0.0010000000475,86.0,7.69999980927,3.17000007629,3.70000004768,12.4799995422
"2002-09-06 03:00:00",20.5300006866,0.0010000000475,88.9000015259,8.0,3.17000007629,2.90000009537,12.470000267
"2002-09-06 04:00:00",20.3400001526,0.0010000000475,88.5,7.98999977112,3.16000008583,2.70000004768,12.4600000381
"2002-09-06 05:00:00",20.1200008392,0.0010000000475,90.1999969482,8.18000030518,3.17000007629,2.79999995232,12.4499998093
"2002-09-06 06:00:00",19.7999992371,0.0010000000475,90.6999969482,8.27999973297,3.17000007629,2.5,12.4300003052
"2002-09-06 07:00:00",19.6200008392,0.0010000000475,90.0999984741,8.26000022888,3.18000006676,2.29999995232,12.4200000763
"2002-09-06 08:00:00",19.3999996185,0.00400000018999,93.3000030518,8.59000015259,3.20000004768,2.79999995232,12.4099998474
"2002-09-06 09:00:00",19.4899997711,0.16099999845,95.6999969482,8.78999996185,3.25999999046,1.89999997616,12.4300003052
"2002-09-06 10:00:00",20.2700004578,0.162000000477,103.900001526,9.39000034332,3.33999991417,2.40000009537,13.2600002289
"2002-09-06 11:00:00",20.9200000763,0.163000002503,106.5,9.51000022888,3.42000007629,2.0,13.1700000763
"2002-09-06 12:00:00",21.0200004578,0.0599999986589,102.300003052,9.10999965668,3.30999994278,2.29999995232,12.8000001907
"2002-09-06 13:00:00",22.0499992371,0.159999996424,107.800003052,9.40999984741,3.34999990463,2.09999990463,13.0699996948
"2002-09-06 14:00:00",23.2000007629,0.0010000000475,106.199996948,9.07999992371,3.30999994278,2.59999990463,13.029999733
"2002-09-06 15:00:00",23.3899993896,0.0010000000475,108.300003052,9.22000026703,3.30999994278,2.5,12.7100000381
"2002-09-06 16:00:00",23.0900001526,0.0010000000475,106.0,9.07999992371,3.28999996185,3.0,12.7299995422
"2002-09-06 17:00:00",22.5499992371,0.0010000000475,100.0,8.65999984741,3.23000001907,3.29999995232,12.7100000381
"2002-09-06 18:00:00",22.3199996948,0.0430000014603,97.5,8.47000026703,3.28999996185,3.40000009537,12.6499996185
"2002-09-06 19:00:00",22.0100002289,0.00200000009499,96.1999969482,8.40999984741,3.27999997139,3.59999990463,12.6099996567
"2002-09-06 20:00:00",21.8799991608,0.00200000009499,93.0999984741,8.15999984741,3.29999995232,3.70000004768,12.5900001526
"2002-09-06 21:00:00",21.6200008392,0.0010000000475,88.1999969482,7.76999998093,3.29999995232,4.09999990463,12.5600004196
"2002-09-06 22:00:00",21.4500007629,0.0010000000475,85.0999984741,7.51999998093,3.30999994278,4.59999990463,12.5500001907
"2002-09-06 23:00:00",21.2800006866,0.0010000000475,89.8000030518,7.96000003815,3.30999994278,25.0,12.5399999619
"2002-09-07 00:00:00",21.1100006104,0.0010000000475,85.3000030518,7.59000015259,3.30999994278,86.3000030518,12.5200004578
"2002-09-07 01:00:00",20.9500007629,0.0010000000475,84.1999969482,7.51000022888,3.28999996185,61.4000015259,12.5100002289
"2002-09-07 02:00:00",20.7399997711,0.0010000000475,85.4000015259,7.65999984741,3.28999996185,13.8000001907,12.5
"2002-09-07 03:00:00",20.5200004578,0.00200000009499,87.3000030518,7.86000013351,3.25999999046,373.799987793,12.4899997711
"2002-09-07 04:00:00",20.3899993896,0.00200000009499,88.6999969482,8.0,3.25,80.3000030518,12.470000267
"2002-09-07 05:00:00",20.2199993134,0.00200000009499,87.5,7.92000007629,3.24000000954,144.600006104,12.4600000381
"2002-09-07 06:00:00",20.0599994659,0.00200000009499,88.1999969482,8.01000022888,3.25,119.099998474,12.4499998093
"2002-09-07 07:00:00",19.8199996948,0.00200000009499,88.9000015259,8.11999988556,3.25,152.199996948,12.4399995804
"2002-09-07 08:00:00",19.75,0.00200000009499,92.4000015259,8.44999980927,3.25999999046,258.0,12.4300003052
"2002-09-07 09:00:00",19.8299999237,0.0430000014603,96.1999969482,8.77999973297,3.28999996185,156.100006104,12.4600000381
"2002-09-07 10:00:00",20.7099990845,0.00600000005215,103.5,9.27999973297,3.29999995232,162.100006104,13.2399997711
"2002-09-07 11:00:00",21.3199996948,0.00200000009499,107.0,9.47999954224,3.31999993324,147.800003052,13.1800003052
"2002-09-07 12:00:00",21.0699996948,0.0010000000475,106.099998474,9.44999980927,3.29999995232,193.100006104,13.1400003433
"2002-09-07 13:00:00",22.2600002289,0.00200000009499,112.599998474,9.80000019073,3.32999992371,378.600006104,13.1099996567
"2002-09-07 14:00:00",23.2900009155,0.0010000000475,108.099998474,9.22000026703,3.32999992371,396.399993896,13.0799999237
"2002-09-07 15:00:00",23.0900001526,0.0,111.599998474,9.56000041962,3.31999993324,148.399993896,13.029999733
"2002-09-07 16:00:00",23.0499992371,0.0,108.5,9.30000019073,3.30999994278,179.600006104,13.0200004578
"2002-09-07 17:00:00",22.2199993134,0.0,98.9000015259,8.60999965668,3.25,178.0,12.779999733
"2002-09-07 18:00:00",21.9400005341,0.0,91.8000030518,8.03999996185,3.28999996185,146.199996948,12.6499996185
"2002-09-07 19:00:00",21.75,0.0,92.1999969482,8.10000038147,3.29999995232,24.7999992371,12.6199998856
"2002-09-07 20:00:00",21.2299995422,0.0,91.5999984741,8.13000011444,3.29999995232,109.5,12.5900001526
"2002-09-07 21:00:00",20.8700008392,0.0,90.6999969482,8.10000038147,3.29999995232,249.100006104,12.5600004196
"2002-09-07 22:00:00",20.3199996948,0.0,88.3000030518,7.98000001907,3.28999996185,8.80000019073,12.5500001907
"2002-09-07 23:00:00",20.0900001526,0.0,84.9000015259,7.69999980927,3.28999996185,2.0,12.529999733
"2002-09-08 00:00:00",19.8400001526,0.0,88.5,8.06999969482,3.26999998093,1.89999997616,12.5200004578
"2002-09-08 01:00:00",19.7900009155,0.0,90.4000015259,8.26000022888,3.26999998093,2.40000009537,12.5100002289
"2002-09-08 02:00:00",19.5300006866,0.0,86.4000015259,7.92999982834,3.25999999046,2.79999995232,12.5
"2002-09-08 03:00:00",19.3799991608,0.0,89.4000015259,8.22999954224,3.26999998093,2.5,12.4799995422
"2002-09-08 04:00:00",19.4799995422,0.0,89.5999984741,8.22999954224,3.26999998093,3.0,12.4799995422
"2002-09-08 05:00:00",19.3500003815,0.0,88.3000030518,8.14000034332,3.27999997139,4.0,12.4600000381
"2002-09-08 06:00:00",19.2299995422,0.0,91.8000030518,8.47000026703,3.28999996185,4.5,12.4499998093
"2002-09-08 07:00:00",19.1900005341,0.0,92.4000015259,8.53999996185,3.29999995232,4.5,12.4300003052
"2002-09-08 08:00:00",19.2099990845,0.0,92.1999969482,8.52000045776,3.30999994278,3.90000009537,12.4399995804
"2002-09-08 09:00:00",19.4200000763,0.0,102.800003052,9.46000003815,3.31999993324,3.20000004768,12.529999733
"2002-09-08 10:00:00",20.0799999237,0.0,110.199996948,10.0,3.36999988556,2.70000004768,13.220000267
"2002-09-08 11:00:00",21.4300003052,0.0,109.400001526,9.67000007629,3.40000009537,2.5,13.1700000763
"2002-09-08 12:00:00",20.9099998474,0.0,107.599998474,9.60999965668,3.36999988556,2.0,12.8999996185
"2002-09-08 13:00:00",21.9300003052,0.0,113.400001526,9.93000030518,3.40000009537,2.20000004768,13.1199998856
"2002-09-08 14:00:00",22.7299995422,0.0,123.800003052,10.6800003052,3.41000008583,2.0,12.8999996185
"2002-09-08 15:00:00",23.5799999237,0.0,125.599998474,10.6599998474,3.46000003815,2.0,12.7399997711
"2002-09-08 16:00:00",24.2199993134,0.0,145.100006104,12.1700000763,3.44000005722,1.89999997616,12.8400001526
"2002-09-08 17:00:00",22.3999996185,0.0,103.400001526,8.97000026703,3.40000009537,1.60000002384,12.7299995422
"2002-09-08 18:00:00",22.0799999237,0.0,101.0,8.81999969482,3.41000008583,1.60000002384,12.6499996185
"2002-09-08 19:00:00",21.9400005341,0.0,95.1999969482,8.34000015259,3.41000008583,1.70000004768,12.6300001144
"2002-09-08 20:00:00",21.6700000763,0.0,92.5999984741,8.14999961853,3.3900001049,1.39999997616,12.6000003815
"2002-09-08 21:00:00",21.3899993896,0.0,92.4000015259,8.17000007629,3.38000011444,1.39999997616,12.5900001526
"2002-09-08 22:00:00",21.1900005341,0.0,90.9000015259,8.07999992371,3.38000011444,1.5,12.5699996948
"2002-09-08 23:00:00",21.0499992371,0.0,91.4000015259,8.14999961853,3.36999988556,2.59999990463,12.5600004196
"2002-09-09 00:00:00",20.9500007629,0.0,91.4000015259,8.15999984741,3.34999990463,4.09999990463,12.5500001907
"2002-09-09 01:00:00",20.7099990845,0.0,92.5,8.28999996185,3.33999991417,4.30000019073,12.529999733
"2002-09-09 02:00:00",20.6700000763,0.0,90.3000030518,8.10000038147,3.32999992371,4.09999990463,12.5200004578
"2002-09-09 03:00:00",20.5699996948,0.0,89.1999969482,8.02000045776,3.29999995232,3.0,12.5100002289
"2002-09-09 04:00:00",20.3700008392,0.0,91.4000015259,8.25,3.28999996185,2.20000004768,12.4899997711
"2002-09-09 05:00:00",20.2399997711,0.0,92.4000015259,8.35999965668,3.28999996185,1.79999995232,12.4799995422
"2002-09-09 06:00:00",20.0400009155,0.0,93.6999969482,8.51000022888,3.27999997139,1.60000002384,12.4600000381
"2002-09-09 07:00:00",19.9500007629,0.152999997139,94.6999969482,8.61999988556,3.32999992371,1.5,12.4499998093
"2002-09-09 08:00:00",19.8600006104,0.152999997139,96.0,8.75,3.30999994278,2.20000004768,12.4399995804
"2002-09-09 09:00:00",19.8400001526,0.00200000009499,96.1999969482,8.77999973297,3.25999999046,1.89999997616,12.4499998093
"2002-09-09 10:00:00",20.2099990845,0.142000004649,103.800003052,9.39000034332,3.33999991417,2.40000009537,13.220000267
"2002-09-09 11:00:00",20.7600002289,0.140000000596,108.0,9.67000007629,3.46000003815,2.70000004768,13.0
"2002-09-09 12:00:00",21.0300006866,0.140000000596,108.599998474,9.68000030518,3.32999992371,2.90000009537,13.0799999237
"2002-09-09 13:00:00",21.5900001526,0.141000002623,111.900001526,9.85999965668,3.32999992371,3.09999990463,13.1199998856
"2002-09-09 14:00:00",22.6499996185,0.15000000596,119.099998474,10.279999733,3.41000008583,3.09999990463,13.0799999237